Effective Sunday, March 17, 2024, the National Weather Service National Data Buoy Center will discontinue its Dial-A-Buoy Interactive Voice Response system. For more information, see Service Change Notice 24-06 (PDF).

Station TIXC1 - Tidal Linkage, Tijuana River Reserve, CA Image indicating link to RSS feed of recent meteorological observations for station TIXC1


Conditions at TIXC1 as of
(11:45 am PST)
1945 GMT on 03/03/2024:
     

Click on the graph icon in the table below to see a time series plot of the last five days of that observation.

5-day plot - Wind Direction Wind Direction (WDIR): W ( 270 deg true )
5-day plot - Wind Speed Wind Speed (WSPD): 8.0 kts
5-day plot - Atmospheric Pressure Atmospheric Pressure (PRES):30.12 in
5-day plot - Air Temperature Air Temperature (ATMP): 63.5 °F
5-day plot - Dew Point Dew Point (DEWP): 52.9 °F
5-day plot -  Wind Speed, Wind Gust and Atmospheric Pressure Combined plot of Wind Speed, Gust, and Air Pressure
Previous observations
TIME
(PST)
5-day plot - Wind Direction
WDIR
 
5-day plot - Wind Speed
WSPD
kts
5-day plot - Wind Gust
GST
kts
5-day plot - Wave Height
WVHT
ft
5-day plot - Dominant Wave Period
DPD
sec
5-day plot - Average Wave Period
APD
sec
5-day plot - Mean Wave Direction
MWD
 
5-day plot - Atmospheric Pressure
PRES
in
5-day plot - Pressure Tendency
PTDY
in
5-day plot - Air Temperature
ATMP
°F
5-day plot - Water Temperature
WTMP
°F
5-day plot - Dew Point
DEWP
°F
5-day plot - Salinity
SAL
psu
5-day plot - Visibility
VIS
nmi
5-day plot - Tide (above MLLW)
TIDE
ft
2024-03-03 11:30 am W 7.0-----30.12- 63.3- 53.2---
2024-03-03 11:15 am W 6.0-----30.12- 63.0- 52.9---
2024-03-03 11:00 am W 6.0-----30.12+0.03 62.6- 52.0---
2024-03-03 10:45 am W 6.0-----30.12- 62.2- 51.8---
2024-03-03 10:30 am W 7.0-----30.12- 61.9- 52.2---
2024-03-03 10:15 am W 6.0-----30.12- 61.7- 52.3---
2024-03-03 10:00 amWNW 7.0-----30.12+0.03 61.5- 52.2---
2024-03-03 09:45 amWNW 7.0-----30.12- 60.8- 51.4---
2024-03-03 09:30 amWNW 7.0-----30.12- 60.1- 52.0---
2024-03-03 09:15 amWNW 6.0-----30.12- 59.7- 52.3---
2024-03-03 09:00 amWNW 6.0-----30.12+0.06 59.9- 52.5---
2024-03-03 08:45 amWNW 6.0-----30.12- 59.0- 52.3---
2024-03-03 08:30 amWNW 5.1-----30.12- 58.5- 52.3---
2024-03-03 08:15 amWNW 5.1-----30.12- 57.4- 53.1---
2024-03-03 08:00 amWNW 4.1-----30.09+0.03 55.6- 53.6---
2024-03-03 07:45 amNNE 1.0-----30.09- 54.7- 53.1---
2024-03-03 07:30 amESE 1.9-----30.09- 54.3- 52.7---
2024-03-03 07:15 amESE 1.9-----30.09- 54.0- 52.3---
2024-03-03 07:00 am SE 1.9-----30.09+0.03 54.1- 52.2---
2024-03-03 06:45 am SE 1.0-----30.09- 54.3- 52.3---
2024-03-03 06:30 am SW 1.0-----30.09- 54.7- 52.5---
2024-03-03 06:15 am W 2.9-----30.09- 54.5- 52.3---
2024-03-03 06:00 am NW 2.9-----30.06+0.00 54.5- 52.3---
2024-03-03 05:45 am NW 6.0-----30.06- 54.7- 52.2---
2024-03-03 05:30 am NW 6.0-----30.06- 55.8- 51.6---
2024-03-03 05:15 am NW 2.9-----30.06- 55.4- 49.5---
2024-03-03 05:00 am NW 4.1-----30.06+0.00 55.0- 49.1---
2024-03-03 04:45 am NW 5.1-----30.06- 55.2- 49.8---
2024-03-03 04:30 am NW 4.1-----30.06- 55.0- 49.6---
2024-03-03 04:15 amNNW 5.1-----30.06- 55.0- 49.6---
2024-03-03 04:00 am NW 5.1-----30.06-0.03 54.9- 50.2---
2024-03-03 03:45 amNNW 5.1-----30.06- 55.2- 51.1---
2024-03-03 03:30 am NW 5.1-----30.06- 55.2- 51.8---
2024-03-03 03:15 am NW 5.1-----30.06- 55.2- 51.8---
2024-03-03 03:00 am NW 6.0-----30.06-0.03 55.2- 52.2---
2024-03-03 02:45 am NW 5.1-----30.06- 55.4- 51.6---
2024-03-03 02:30 am NW 6.0-----30.06- 56.5- 51.8---
2024-03-03 02:15 amWNW 4.1-----30.06- 57.0- 52.3---
2024-03-03 02:00 amWNW 5.1-----30.06-0.03 57.2- 52.2---
2024-03-03 01:45 am NW 4.1-----30.09- 56.8- 52.5---
2024-03-03 01:30 amWNW 5.1-----30.09- 56.5- 52.2---
2024-03-03 01:15 amWNW 5.1-----30.09- 56.5- 52.3---
2024-03-03 01:00 am NW 4.1-----30.09+0.00 56.3- 52.5---
2024-03-03 12:45 am NW 4.1-----30.09- 56.1- 52.0---
2024-03-03 12:30 am NW 4.1-----30.09- 56.1- 52.0---
2024-03-03 12:15 am NW 4.1-----30.09- 56.1- 53.1---
2024-03-03 12:00 am NW 1.9-----30.09+0.00 56.1- 53.2---
2024-03-02 11:45 pmNNW 1.9-----30.09- 56.3- 53.1---
2024-03-02 11:30 pmNNW 2.9-----30.09- 56.5- 52.7---
2024-03-02 11:15 pmWNW 6.0-----30.09- 57.2- 52.9---
2024-03-02 11:00 pm W 8.0-----30.09+0.03 57.9- 51.8---
2024-03-02 10:45 pmWNW 6.0-----30.09- 57.9- 52.5---
2024-03-02 10:30 pmWNW 6.0-----30.09- 57.6- 52.5---
2024-03-02 10:15 pmWNW 6.0-----30.09- 57.6- 52.2---
2024-03-02 10:00 pmWNW 7.0-----30.09+0.03 57.9- 53.2---
2024-03-02 09:45 pmWNW 6.0-----30.09- 57.9- 53.4---
2024-03-02 09:30 pmWNW 6.0-----30.09- 57.6- 53.2---
2024-03-02 09:15 pmWNW 5.1-----30.09- 57.9- 53.2---
2024-03-02 09:00 pmWNW 6.0-----30.09+0.03 58.1- 53.4---
2024-03-02 08:45 pmWNW 6.0-----30.09- 57.9- 53.2---
2024-03-02 08:30 pmWNW 7.0-----30.06- 58.1- 53.4---
2024-03-02 08:15 pm W 7.0-----30.06- 58.3- 53.8---
2024-03-02 08:00 pm W 7.0-----30.06+0.00 58.1- 54.0---
2024-03-02 07:45 pm W 5.1-----30.06- 58.1- 54.3---
2024-03-02 07:30 pm W 5.1-----30.06- 58.3- 54.9---
2024-03-02 07:15 pm W 5.1-----30.06- 58.3- 55.4---
2024-03-02 07:00 pm W 6.0-----30.06+0.00 58.3- 55.4---
2024-03-02 06:45 pm W 7.0-----30.06- 58.8- 55.0---
2024-03-02 06:30 pm W 7.0-----30.06- 58.6- 54.9---
2024-03-02 06:15 pmWSW 6.0-----30.06- 58.6- 55.8---
2024-03-02 06:00 pmWSW 6.0-----30.06+0.00 58.8- 55.6---
2024-03-02 05:45 pm SW 7.0-----30.06- 59.5- 56.1---
2024-03-02 05:30 pmSSW 6.0-----30.06- 59.9- 55.8---
2024-03-02 05:15 pm SW 6.0-----30.06- 60.3- 55.4---
2024-03-02 05:00 pm SW 6.0-----30.06+0.00 60.6- 55.6---
2024-03-02 04:45 pm SW 6.0-----30.06- 60.8- 55.4---
2024-03-02 04:30 pm SW 6.0-----30.06- 61.3- 55.6---
2024-03-02 04:15 pm SW 7.0-----30.06- 61.7- 55.6---
2024-03-02 04:00 pm SW 6.0-----30.06-0.03 62.6- 55.8---
2024-03-02 03:45 pm SW 6.0-----30.06- 62.8- 55.6---
2024-03-02 03:30 pm SW 7.0-----30.06- 62.6- 55.8---
2024-03-02 03:15 pm SW 7.0-----30.06- 62.6- 56.5---
2024-03-02 03:00 pm SW 7.0-----30.06-0.06 62.4- 57.0---
2024-03-02 02:45 pm SW 7.0-----30.06- 61.9- 57.4---
2024-03-02 02:30 pmSSW 7.0-----30.06- 61.5- 57.9---
2024-03-02 02:15 pmSSW 7.0-----30.06- 61.7- 58.1---
2024-03-02 02:00 pmSSW 7.0-----30.06-0.06 61.2- 58.6---
2024-03-02 01:45 pmSSW 7.0-----30.06- 61.0- 58.5---
2024-03-02 01:30 pm SW 7.0-----30.09- 59.7- 57.2---
2024-03-02 01:15 pmSSW 8.0-----30.09- 62.1- 57.2---
2024-03-02 01:00 pmSSW 8.9-----30.09+0.00 62.4- 57.2---
2024-03-02 12:45 pmSSW 8.9-----30.09- 63.1- 57.7---
2024-03-02 12:30 pm S 8.9-----30.09- 62.4- 56.7---
2024-03-02 12:15 pm S 8.9-----30.09- 63.0- 57.2---
2024-03-02 12:00 pmSSW 9.9-----30.12+0.03 63.1- 57.9---